TimeCDT,TemperatureF,Dew PointF,Humidity,Sea Level PressureIn,VisibilityMPH,Wind Direction,Wind SpeedMPH,Gust SpeedMPH,PrecipitationIn,Events,Conditions,WindDirDegrees,DateUTC
12:15 AM,23.0,6.8,50,30.10,10.0,West,3.5,-,N/A,,Clear,270,2013-04-02 05:15:00
12:35 AM,21.2,8.6,58,30.10,10.0,West,3.5,-,N/A,,Clear,260,2013-04-02 05:35:00
12:55 AM,21.2,8.6,58,30.10,10.0,West,4.6,-,N/A,,Clear,270,2013-04-02 05:55:00
1:15 AM,21.2,8.6,58,30.10,10.0,West,4.6,-,N/A,,Clear,270,2013-04-02 06:15:00
1:35 AM,21.2,10.4,63,30.10,10.0,West,5.8,-,N/A,,Clear,280,2013-04-02 06:35:00
1:55 AM,23.0,8.6,54,30.10,10.0,West,5.8,-,N/A,,Clear,280,2013-04-02 06:55:00
2:15 AM,23.0,8.6,54,30.10,10.0,West,4.6,-,N/A,,Clear,280,2013-04-02 07:15:00
2:35 AM,23.0,8.6,54,30.10,10.0,WNW,3.5,-,N/A,,Clear,300,2013-04-02 07:35:00
2:55 AM,23.0,8.6,54,30.11,10.0,WNW,6.9,-,N/A,,Clear,290,2013-04-02 07:55:00
3:15 AM,21.2,8.6,58,30.11,10.0,WNW,5.8,-,N/A,,Clear,290,2013-04-02 08:15:00
3:35 AM,21.2,8.6,58,30.11,10.0,WNW,3.5,-,N/A,,Clear,300,2013-04-02 08:35:00
3:55 AM,21.2,6.8,54,30.11,10.0,WNW,3.5,-,N/A,,Clear,290,2013-04-02 08:55:00
4:15 AM,21.2,6.8,54,30.11,10.0,Calm,Calm,-,N/A,,Clear,0,2013-04-02 09:15:00
4:35 AM,21.2,6.8,54,30.12,10.0,Calm,Calm,-,N/A,,Clear,0,2013-04-02 09:35:00
4:55 AM,19.4,6.8,58,30.12,10.0,Calm,Calm,-,N/A,,Clear,0,2013-04-02 09:55:00
5:15 AM,19.4,8.6,63,30.13,10.0,WNW,3.5,-,N/A,,Clear,300,2013-04-02 10:15:00
5:35 AM,19.4,8.6,63,30.13,10.0,West,3.5,-,N/A,,Clear,280,2013-04-02 10:35:00
5:55 AM,19.4,8.6,63,30.14,10.0,Calm,Calm,-,N/A,,Clear,0,2013-04-02 10:55:00
6:15 AM,19.4,10.4,68,30.14,10.0,WNW,4.6,-,N/A,,Clear,290,2013-04-02 11:15:00
6:35 AM,19.4,8.6,63,30.14,10.0,WNW,3.5,-,N/A,,Clear,290,2013-04-02 11:35:00
6:55 AM,19.4,8.6,63,30.15,10.0,WNW,3.5,-,N/A,,Clear,300,2013-04-02 11:55:00
7:15 AM,19.4,10.4,68,30.16,10.0,WNW,4.6,-,N/A,,Clear,290,2013-04-02 12:15:00
7:35 AM,21.2,10.4,63,30.17,10.0,WNW,6.9,-,N/A,,Clear,300,2013-04-02 12:35:00
7:55 AM,21.2,10.4,63,30.18,10.0,WNW,8.1,-,N/A,,Clear,300,2013-04-02 12:55:00
8:15 AM,23.0,10.4,59,30.18,10.0,NW,6.9,-,N/A,,Clear,310,2013-04-02 13:15:00
8:35 AM,24.8,10.4,54,30.18,10.0,NW,5.8,-,N/A,,Clear,310,2013-04-02 13:35:00
8:55 AM,26.6,10.4,51,30.19,10.0,NW,6.9,-,N/A,,Clear,320,2013-04-02 13:55:00
9:35 AM,28.4,12.2,51,30.19,10.0,WNW,9.2,-,N/A,,Clear,300,2013-04-02 14:35:00
9:55 AM,30.2,10.4,44,30.19,10.0,NNW,6.9,-,N/A,,Clear,330,2013-04-02 14:55:00
10:15 AM,30.2,10.4,44,30.19,10.0,WNW,11.5,16.1,N/A,,Clear,300,2013-04-02 15:15:00
10:55 AM,30.2,10.4,44,30.19,10.0,North,8.1,18.4,N/A,,Partly Cloudy,350,2013-04-02 15:55:00
11:15 AM,32.0,10.4,41,30.19,10.0,NW,8.1,17.3,N/A,,Scattered Clouds,320,2013-04-02 16:15:00
11:35 AM,32.0,10.4,41,30.19,10.0,NNW,10.4,18.4,N/A,,Mostly Cloudy,330,2013-04-02 16:35:00
11:55 AM,32.0,8.6,38,30.18,10.0,NNW,9.2,17.3,N/A,,Overcast,330,2013-04-02 16:55:00
12:15 PM,33.8,10.4,38,30.18,10.0,NNW,11.5,17.3,N/A,,Mostly Cloudy,340,2013-04-02 17:15:00
12:35 PM,33.8,10.4,38,30.18,10.0,NW,6.9,17.3,N/A,,Mostly Cloudy,310,2013-04-02 17:35:00
12:55 PM,33.8,10.4,38,30.17,10.0,NNW,8.1,16.1,N/A,,Overcast,340,2013-04-02 17:55:00
1:15 PM,35.6,12.2,38,30.17,10.0,NNW,9.2,-,N/A,,Overcast,330,2013-04-02 18:15:00
1:35 PM,35.6,10.4,35,30.17,10.0,NW,8.1,17.3,N/A,,Overcast,320,2013-04-02 18:35:00
1:55 PM,35.6,10.4,35,30.17,10.0,NNW,10.4,-,N/A,,Overcast,330,2013-04-02 18:55:00
2:15 PM,35.6,10.4,35,30.17,10.0,NW,10.4,23.0,N/A,,Overcast,320,2013-04-02 19:15:00
2:35 PM,35.6,8.6,33,30.17,10.0,WNW,6.9,-,N/A,,Mostly Cloudy,300,2013-04-02 19:35:00
2:55 PM,35.6,8.6,33,30.17,10.0,NW,9.2,-,N/A,,Overcast,310,2013-04-02 19:55:00
3:15 PM,35.6,8.6,33,30.17,10.0,NNW,10.4,-,N/A,,Overcast,340,2013-04-02 20:15:00
3:35 PM,35.6,8.6,33,30.17,10.0,NNW,9.2,-,N/A,,Overcast,330,2013-04-02 20:35:00
3:55 PM,37.4,10.4,33,30.17,10.0,NW,8.1,-,N/A,,Mostly Cloudy,320,2013-04-02 20:55:00
4:15 PM,37.4,10.4,33,30.17,10.0,North,10.4,-,N/A,,Scattered Clouds,350,2013-04-02 21:15:00
4:35 PM,35.6,10.4,35,30.18,10.0,NW,8.1,17.3,N/A,,Mostly Cloudy,310,2013-04-02 21:35:00
4:55 PM,37.4,10.4,33,30.18,10.0,NNW,12.7,17.3,N/A,,Mostly Cloudy,330,2013-04-02 21:55:00
5:15 PM,37.4,8.6,30,30.18,10.0,NNW,11.5,17.3,N/A,,Scattered Clouds,340,2013-04-02 22:15:00
5:35 PM,37.4,8.6,30,30.19,10.0,NW,6.9,-,N/A,,Mostly Cloudy,320,2013-04-02 22:35:00
5:55 PM,37.4,8.6,30,30.19,10.0,NNW,13.8,18.4,N/A,,Scattered Clouds,340,2013-04-02 22:55:00
6:15 PM,37.4,6.8,28,30.20,10.0,NNW,5.8,-,N/A,,Scattered Clouds,330,2013-04-02 23:15:00
6:35 PM,35.6,5.0,28,30.21,10.0,NNW,6.9,-,N/A,,Mostly Cloudy,340,2013-04-02 23:35:00
6:55 PM,35.6,6.8,30,30.21,10.0,NNW,5.8,-,N/A,,Scattered Clouds,330,2013-04-02 23:55:00
7:15 PM,35.6,5.0,28,30.22,10.0,NNW,8.1,-,N/A,,Clear,340,2013-04-03 00:15:00
7:35 PM,33.8,6.8,32,30.22,10.0,North,5.8,-,N/A,,Clear,350,2013-04-03 00:35:00
7:55 PM,33.8,6.8,32,30.23,10.0,North,6.9,-,N/A,,Clear,360,2013-04-03 00:55:00
8:15 PM,32.0,6.8,35,30.24,10.0,North,8.1,-,N/A,,Clear,350,2013-04-03 01:15:00
8:35 PM,30.2,6.8,37,30.25,10.0,North,5.8,-,N/A,,Clear,360,2013-04-03 01:35:00
8:55 PM,30.2,6.8,37,30.26,10.0,North,5.8,-,N/A,,Clear,10,2013-04-03 01:55:00
9:15 PM,30.2,5.0,34,30.27,10.0,North,3.5,-,N/A,,Clear,350,2013-04-03 02:15:00
9:35 PM,28.4,6.8,40,30.27,10.0,North,4.6,-,N/A,,Clear,350,2013-04-03 02:35:00
9:55 PM,28.4,5.0,37,30.28,10.0,North,4.6,-,N/A,,Clear,350,2013-04-03 02:55:00
10:15 PM,28.4,3.2,34,30.28,10.0,North,5.8,-,N/A,,Clear,350,2013-04-03 03:15:00
10:35 PM,28.4,3.2,34,30.28,10.0,North,4.6,-,N/A,,Clear,350,2013-04-03 03:35:00
10:55 PM,26.6,5.0,40,30.28,10.0,Calm,Calm,-,N/A,,Clear,0,2013-04-03 03:55:00
11:15 PM,26.6,3.2,37,30.28,10.0,Calm,Calm,-,N/A,,Clear,0,2013-04-03 04:15:00
11:35 PM,24.8,10.4,54,30.29,10.0,Calm,Calm,-,N/A,,Clear,0,2013-04-03 04:35:00
11:55 PM,24.8,3.2,40,30.29,10.0,Calm,Calm,-,N/A,,Clear,0,2013-04-03 04:55:00